Weather History for West Palm Beach, FL

Change the Weather History Date:

Wednesday, May 1, 2013

  Actual Average Record
Temperature  
Mean Temperature 75 °F 76 °F  
Max Temperature 82 °F 84 °F 93 °F (1971)
Min Temperature 68 °F 68 °F 54 °F (1999)
Degree Days  
Heating Degree Days 0 0  
Month to date heating degree days 0 0  
Since 1 July heating degree days 164 233  
Cooling Degree Days 10 11  
Month to date cooling degree days 10 11  
Year to date cooling degree days 837 706  
Growing Degree Days 25 (Base 50)    
Moisture  
Dew Point 69 °F    
Average Humidity 85    
Maximum Humidity 100    
Minimum Humidity 69    
Precipitation  
Precipitation 0.85 in 0.08 in 2.76 in (1932)
Month to date precipitation 0.85 0.08  
Year to date precipitation 10.13 14.28  
Snow  
Snow 0.00 in - - ()
Month to date snowfall 0.0  
Since 1 July snowfall 0.0  
Snow Depth 0.00 in    
Sea Level Pressure  
Sea Level Pressure 29.97 in    
Wind  
Wind Speed 6 mph (NE)    
Max Wind Speed 18 mph    
Max Gust Speed 23 mph    
Visibility 8 miles    
Events Rain , Thunderstorm    
T = Trace of Precipitation, MM = Missing Value Source: NWS Daily Summary

Daily Weather History Graph

Daily Weather History Graph

Search for Another Location

Airport:

Trip Planner

Search our weather history database for the weather conditions in past years. The results will help you decide how hot, cold, wet, or windy it might be!

Date:

Astronomy

May. 01, 2013 Rise Set
Actual Time 6:42 AM EDT 7:53 PM EDT
Civil Twilight 6:17 AM EDT 8:17 PM EDT
Nautical Twilight 5:48 AM EDT 8:46 PM EDT
Astronomical Twilight 5:18 AM EDT 9:16 PM EDT
Moon 12:59 AM EDT (5/1) 12:18 PM EDT (5/1)
Length of Visible Light 13h 59m
Length of Day
13h 10m
Waning Gibbous, 59% of the Moon is Illuminated
May 1
Waning Gibbous
May 2
Last Quarter
May 9
New
May 18
First Quarter
May 25
Full

Hourly Weather History & Observations

Time (EDT) Temp. Heat Index Dew Point Humidity Pressure Visibility Wind Dir Wind Speed Gust Speed Precip Events Conditions
12:53 AM 71.1 °F - 69.1 °F 93% 29.98 in 10.0 mi Calm Calm - N/A   Partly Cloudy
1:53 AM 71.1 °F - 69.1 °F 93% 29.96 in 10.0 mi Calm Calm - N/A   Partly Cloudy
2:53 AM 69.1 °F - 68.0 °F 96% 29.94 in 10.0 mi Calm Calm - N/A   Scattered Clouds
3:53 AM 71.1 °F - 68.0 °F 90% 29.93 in 10.0 mi Calm Calm - N/A   Scattered Clouds
4:53 AM 68.0 °F - 68.0 °F 100% 29.94 in 10.0 mi Calm Calm - N/A   Scattered Clouds
5:53 AM 69.1 °F - 68.0 °F 96% 29.94 in 10.0 mi Calm Calm - N/A   Scattered Clouds
6:53 AM 71.1 °F - 69.1 °F 93% 29.96 in 10.0 mi SSW 5.8 mph - 0.00 in Rain Light Rain
7:02 AM 71.6 °F - 69.8 °F 94% 29.97 in 3.0 mi SSE 6.9 mph - 0.02 in Rain Heavy Rain
7:53 AM 73.0 °F - 70.0 °F 90% 29.98 in 3.0 mi East 8.1 mph - 0.27 in Rain Heavy Rain
8:00 AM 73.4 °F - 69.8 °F 88% 29.98 in 0.8 mi East 9.2 mph - 0.21 in Rain Heavy Rain
8:07 AM 73.4 °F - 69.8 °F 88% 29.98 in 4.0 mi NNE 6.9 mph - 0.24 in Rain Rain
8:45 AM 73.4 °F - 71.6 °F 94% 29.98 in 10.0 mi Calm Calm - 0.24 in   Mostly Cloudy
8:53 AM 75.0 °F - 70.0 °F 84% 29.98 in 10.0 mi North 4.6 mph - 0.24 in   Mostly Cloudy
9:53 AM 79.0 °F - 73.0 °F 82% 29.98 in 10.0 mi NE 5.8 mph - N/A   Scattered Clouds
10:53 AM 77.0 °F - 71.1 °F 82% 30.01 in 10.0 mi East 8.1 mph - 0.00 in Rain Light Rain
11:46 AM 78.8 °F - 71.6 °F 78% 30.00 in 10.0 mi East 11.5 mph - 0.00 in   Mostly Cloudy
11:53 AM 79.0 °F - 71.1 °F 77% 30.00 in 10.0 mi ESE 11.5 mph - 0.00 in   Mostly Cloudy
12:51 PM 80.6 °F 83.9 °F 69.8 °F 70% 29.98 in 10.0 mi ESE 10.4 mph - N/A   Overcast
12:53 PM 80.1 °F 82.9 °F 69.1 °F 69% 29.98 in 10.0 mi East 9.2 mph - N/A   Overcast
1:53 PM 81.0 °F 84.4 °F 70.0 °F 69% 29.96 in 10.0 mi East 12.7 mph 19.6 mph N/A   Overcast
2:53 PM 80.1 °F 83.2 °F 70.0 °F 71% 29.95 in 10.0 mi East 13.8 mph - N/A   Overcast
3:53 PM 79.0 °F - 69.1 °F 72% 29.94 in 10.0 mi ESE 11.5 mph - N/A   Overcast
4:53 PM 78.1 °F - 70.0 °F 76% 29.97 in 10.0 mi SE 5.8 mph - 0.00 in Rain Light Rain
5:02 PM 75.2 °F - 69.8 °F 83% 29.98 in 5.0 mi WNW 18.4 mph 23.0 mph 0.02 in Rain Light Rain
5:04 PM 73.4 °F - 66.2 °F 78% 29.98 in 2.0 mi WNW 15.0 mph 23.0 mph 0.03 in Rain , Thunderstorm Thunderstorms and Rain
5:12 PM 69.8 °F - 66.2 °F 88% 29.97 in 1.8 mi WNW 15.0 mph 23.0 mph 0.08 in Rain , Thunderstorm Heavy Thunderstorms and Rain
5:17 PM 69.8 °F - 66.2 °F 88% 29.97 in 1.8 mi West 13.8 mph 23.0 mph 0.11 in Rain , Thunderstorm Heavy Thunderstorms and Rain
5:21 PM 69.8 °F - 66.2 °F 88% 29.97 in 2.0 mi West 11.5 mph - 0.15 in Rain , Thunderstorm Heavy Thunderstorms and Rain
5:28 PM 69.8 °F - 68.0 °F 94% 29.96 in 3.0 mi West 9.2 mph - 0.18 in Rain , Thunderstorm Thunderstorms and Rain
5:43 PM 69.8 °F - 68.0 °F 94% 29.94 in 3.0 mi North 6.9 mph - 0.23 in Rain Heavy Rain
5:53 PM 70.0 °F - 68.0 °F 93% 29.95 in 7.0 mi North 6.9 mph - 0.26 in Rain Light Rain
6:21 PM 69.8 °F - 68.0 °F 94% 29.96 in 10.0 mi NNW 6.9 mph - 0.03 in Rain Light Rain
6:53 PM 70.0 °F - 68.0 °F 93% 29.96 in 10.0 mi NW 4.6 mph - 0.03 in   Overcast
7:53 PM 70.0 °F - 66.9 °F 90% 29.96 in 10.0 mi Calm Calm - 0.00 in   Overcast
8:53 PM 70.0 °F - 68.0 °F 93% 29.97 in 10.0 mi WNW 3.5 mph - 0.00 in Rain Light Rain
9:53 PM 70.0 °F - 68.0 °F 93% 29.96 in 10.0 mi ENE 4.6 mph - 0.02 in   Overcast
10:53 PM 71.1 °F - 69.1 °F 93% 29.96 in 10.0 mi NE 6.9 mph - 0.02 in Rain Light Rain
11:53 PM 73.0 °F - 71.1 °F 93% 29.94 in 10.0 mi East 9.2 mph - 0.01 in   Mostly Cloudy